Regional Weather Roundup
Issued by NWS

Home | Current Version | Previous Version | Text Only | Print | Product List | Glossary On
Versions: 1 2 3 4 5 6 7 8 9 10 11 12 13 14 15 16 17 18 19 20 21 22 23 24 25 26 27 28 29 30 31 32 33 34 35 36 37 38 39 40 41 42 43 44 45 46 47 48 49 50
150
ASUS45 KREV 080010
RWRNV
NEVADA REGIONAL WEATHER ROUNDUP
NATIONAL WEATHER SERVICE RENO NV
400 PM PST SUN FEB 07 2016

NOTE: "FAIR" INDICATES FEW OR NO CLOUDS BELOW 12,000 FEET WITH NO
SIGNIFICANT WEATHER AND/OR OBSTRUCTIONS TO VISIBILITY.

NVZ001-003-004-080100-
WESTERN NEVADA

CITY           SKY/WX    TMP DP  RH WIND       PRES   REMARKS
RENO           SUNNY     53  29  39 E12       30.53R
6HR MIN TEMP:  39; 6HR MAX TEMP:  56;

CARSON CITY    FAIR      50  32  50 E18       30.52R
MINDEN         FAIR      50  34  53 N14       30.51R
SLIDE MTN        N/A     32  10  40 E39         N/A
FALLON         MOSUNNY   49  33  54 N3        30.54F
6HR MIN TEMP:  36; 6HR MAX TEMP:  49;

LOVELOCK       SUNNY     54  32  43 CALM      30.53S
6HR MIN TEMP:  42; 6HR MAX TEMP:  55;

HAWTHORNE      SUNNY     46  32  57 CALM      30.55R
$$

NVZ002-CAZ072-073-080100-
NORTHERN AND CENTRAL SIERRA

CITY           SKY/WX    TMP DP  RH WIND       PRES   REMARKS
S. LAKE TAHOE  SUNNY     45  25  45 VRB5      30.46R
6HR MIN TEMP:  37; 6HR MAX TEMP:  53;

TRUCKEE        SUNNY     48  28  46 N7        30.49R
                   6HR MAX TEMP:  48;

SQUAW VLY 8000   N/A     39  21  48 W7          N/A
SUSANVILLE     SUNNY     52  36  54 E7        30.54R
BLUE CANYON    SUNNY     56  23  27 E10G22    30.38S
MAMMOTH LAKES  FAIR      50  19  29 CALM      30.51R
BRIDGEPORT     FAIR      48  25  40 VRB5      30.48R
$$

NVZ030-031-036-080100-
NORTHERN NEVADA

CITY           SKY/WX    TMP DP  RH WIND       PRES   REMARKS
ELKO           SUNNY     32  18  56 CALM      30.58S
6HR MIN TEMP:  19; 6HR MAX TEMP:  34;

WINNEMUCCA     SUNNY     45  28  51 NE12      30.56R
6HR MIN TEMP:  34; 6HR MAX TEMP:  47;

WENDOVER       CLEAR     39  28  65 E6        30.60S
$$

NVZ035-037-080100-
CENTRAL NEVADA

CITY           SKY/WX    TMP DP  RH WIND       PRES   REMARKS
ELY            SUNNY     35  20  54 CALM      30.56R
6HR MIN TEMP:  20; 6HR MAX TEMP:  35;

EUREKA           N/A      1  52 100 CALM      30.57R
6HR MIN TEMP:   1; 6HR MAX TEMP:   1;

$$

NVZ013-014-080100-
SOUTH CENTRAL NEVADA

CITY           SKY/WX    TMP DP  RH WIND       PRES   REMARKS
TONOPAH        SUNNY     41  30  65 E7        30.50R
6HR MIN TEMP:  28; 6HR MAX TEMP:  44;

$$

NVZ017-020-022-080100-
SOUTHERN NEVADA

CITY           SKY/WX    TMP DP  RH WIND       PRES   REMARKS
LAS VEGAS      SUNNY     71  19  14 NE9       30.28S
6HR MIN TEMP:  56; 6HR MAX TEMP:  71;

N. LAS VEGAS   SUNNY     71  20  14 N16       30.31S
6HR MIN TEMP:  56; 6HR MAX TEMP:  72;

NELLIS AFB     SUNNY     71  24  17 NW16      30.30S
6HR MIN TEMP:  54; 6HR MAX TEMP:  71;

HENDERSON      SUNNY     68  22  17 NE15      30.34S
6HR MIN TEMP:  55; 6HR MAX TEMP:  69;

MERCURY        SUNNY     64  25  22 NE21      30.35S
6HR MIN TEMP:  55; 6HR MAX TEMP:  67;

$$




USA.gov is the U.S. government's official web portal to all federal, state and local government web resources and services.